| time (UTC) | temp F | wind direction | speed MPH | gust MPH | rain 1hr in | rain 24hr in | rain mn in | humidity % | barometer mb |
| 20260505232122 | 76 | 359 | 7.0 | 12.0 | 0.00 | 0.00 | 0.00 | 27 | 1008.8 |
| 20260505231143 | 77 | 359 | 10.0 | 16.0 | 0.00 | 0.00 | 0.00 | 25 | 1008.9 |
| 20260505230122 | 76 | 360 | 12.0 | 18.0 | 0.00 | 0.00 | 0.00 | 25 | 1008.9 |
| 20260505225122 | 77 | 357 | 13.0 | 21.0 | 0.00 | 0.00 | 0.00 | 25 | 1009.0 |
| 20260505224122 | 77 | 360 | 10.0 | 19.0 | 0.00 | 0.00 | 0.00 | 25 | 1008.9 |
| 20260505223143 | 76 | 359 | 12.0 | 22.0 | 0.00 | 0.00 | 0.00 | 26 | 1009.2 |
| 20260505222122 | 76 | 360 | 9.0 | 18.0 | 0.00 | 0.00 | 0.00 | 27 | 1009.2 |
| 20260505221121 | 76 | 359 | 11.0 | 19.0 | 0.00 | 0.00 | 0.00 | 28 | 1009.4 |
| 20260505220142 | 75 | 359 | 10.0 | 14.0 | 0.00 | 0.00 | 0.00 | 30 | 1009.4 |
| 20260505215121 | 77 | 360 | 11.0 | 20.0 | 0.00 | 0.00 | 0.00 | 29 | 1009.3 |
| 20260505214142 | 76 | 359 | 12.0 | 20.0 | 0.00 | 0.00 | 0.00 | 30 | 1009.5 |
| 20260505213121 | 74 | 360 | 10.0 | 17.0 | 0.00 | 0.00 | 0.00 | 32 | 1009.6 |
| 20260505212121 | 76 | 360 | 9.0 | 14.0 | 0.00 | 0.00 | 0.00 | 31 | 1009.7 |
| 20260505211121 | 74 | 358 | 5.0 | 11.0 | 0.00 | 0.00 | 0.00 | 35 | 1009.9 |
| 20260505210122 | 75 | 359 | 10.0 | 20.0 | 0.00 | 0.00 | 0.00 | 34 | 1010.0 |
| 20260505205121 | 76 | 359 | 12.0 | 17.0 | 0.00 | 0.00 | 0.00 | 33 | 1010.1 |
| 20260505204121 | 75 | 359 | 8.0 | 13.0 | 0.00 | 0.00 | 0.00 | 36 | 1010.2 |
| 20260505203142 | 74 | 359 | 11.0 | 16.0 | 0.00 | 0.00 | 0.00 | 37 | 1010.3 |
| 20260505202121 | 75 | 358 | 7.0 | 13.0 | 0.00 | 0.00 | 0.00 | 37 | 1010.3 |
| 20260505201122 | 73 | 360 | 9.0 | 14.0 | 0.00 | 0.00 | 0.00 | 39 | 1010.4 |
| 20260505200121 | 73 | 359 | 9.0 | 16.0 | 0.00 | 0.00 | 0.00 | 39 | 1010.4 |
| 20260505195121 | 75 | 359 | 8.0 | 15.0 | 0.00 | 0.00 | 0.00 | 37 | 1010.4 |
| 20260505194121 | 74 | 357 | 11.0 | 19.0 | 0.00 | 0.00 | 0.00 | 38 | 1010.5 |
| 20260505193122 | 73 | 359 | 9.0 | 15.0 | 0.00 | 0.00 | 0.00 | 39 | 1010.6 |
| 20260505192143 | 74 | 359 | 9.0 | 15.0 | 0.00 | 0.00 | 0.00 | 39 | 1010.8 |
| 20260505191142 | 73 | 359 | 9.0 | 17.0 | 0.00 | 0.00 | 0.00 | 40 | 1010.8 |
| 20260505190121 | 72 | 358 | 8.0 | 19.0 | 0.00 | 0.00 | 0.00 | 42 | 1011.1 |
| 20260505185142 | 72 | 360 | 11.0 | 18.0 | 0.00 | 0.00 | 0.00 | 42 | 1011.2 |
| 20260505184122 | 72 | 359 | 7.0 | 16.0 | 0.00 | 0.00 | 0.00 | 42 | 1011.1 |
| 20260505183121 | 70 | 359 | 9.0 | 15.0 | 0.00 | 0.00 | 0.00 | 43 | 1011.3 |
| 20260505182121 | 72 | 360 | 7.0 | 12.0 | 0.00 | 0.00 | 0.00 | 46 | 1011.2 |
| 20260505181123 | 71 | 360 | 11.0 | 18.0 | 0.00 | 0.00 | 0.00 | 47 | 1011.3 |
| 20260505180121 | 70 | 360 | 8.0 | 13.0 | 0.00 | 0.00 | 0.00 | 49 | 1011.3 |
| 20260505175121 | 70 | 359 | 10.0 | 17.0 | 0.00 | 0.00 | 0.00 | 49 | 1011.3 |
| 20260505174121 | 70 | 360 | 8.0 | 13.0 | 0.00 | 0.00 | 0.00 | 52 | 1011.3 |
| 20260505173121 | 69 | 360 | 8.0 | 13.0 | 0.00 | 0.00 | 0.00 | 53 | 1011.2 |
| 20260505172121 | 69 | 359 | 7.0 | 13.0 | 0.00 | 0.00 | 0.00 | 54 | 1011.2 |
| 20260505171142 | 69 | 360 | 7.0 | 14.0 | 0.00 | 0.00 | 0.00 | 54 | 1011.2 |
| 20260505170121 | 69 | 357 | 5.0 | 11.0 | 0.00 | 0.00 | 0.00 | 55 | 1011.1 |
| 20260505165121 | 68 | 357 | 8.0 | 13.0 | 0.00 | 0.00 | 0.00 | 58 | 1011.2 |
| 20260505164121 | 68 | 360 | 8.0 | 12.0 | 0.00 | 0.00 | 0.00 | 60 | 1011.2 |
| 20260505163123 | 67 | 360 | 9.0 | 14.0 | 0.00 | 0.00 | 0.00 | 63 | 1011.3 |
| 20260505162142 | 67 | 359 | 6.0 | 10.0 | 0.00 | 0.00 | 0.00 | 65 | 1011.3 |
| 20260505161121 | 67 | 357 | 4.0 | 9.0 | 0.00 | 0.00 | 0.00 | 64 | 1011.2 |
| 20260505160121 | 67 | 351 | 2.0 | 5.0 | 0.00 | 0.00 | 0.00 | 65 | 1011.3 |
| 20260505153121 | 66 | 3 | 4.0 | 8.0 | 0.00 | 0.00 | 0.00 | 69 | 1011.0 |
| 20260505152122 | 66 | 11 | 5.0 | 9.0 | 0.00 | 0.00 | 0.00 | 73 | 1011.1 |
| 20260505151122 | 64 | 6 | 4.0 | 6.0 | 0.00 | 0.00 | 0.00 | 75 | 1011.0 |
| 20260505150122 | 64 | 2 | 4.0 | 8.0 | 0.00 | 0.00 | 0.00 | 75 | 1011.0 |
| 20260505140123 | 63 | 23 | 3.0 | 6.0 | 0.00 | 0.00 | 0.00 | 79 | 1010.9 |
| 20260505130142 | 63 | 11 | 4.0 | 6.0 | 0.00 | 0.00 | 0.00 | 76 | 1010.4 |
| 20260505124122 | 63 | 17 | 3.0 | 6.0 | 0.00 | 0.00 | 0.00 | 76 | 1010.3 |
| 20260505123122 | 62 | 7 | 4.0 | 6.0 | 0.00 | 0.00 | 0.00 | 77 | 1010.2 |
| 20260505122122 | 62 | 4 | 4.0 | 8.0 | 0.00 | 0.00 | 0.00 | 78 | 1010.1 |
| 20260505121144 | 62 | 360 | 1.0 | 2.0 | 0.00 | 0.00 | 0.00 | 78 | 1010.1 |
| 20260505120121 | 62 | 13 | 2.0 | 4.0 | 0.00 | 0.00 | 0.00 | 77 | 1010.0 |
| 20260505115122 | 62 | 16 | 3.0 | 6.0 | 0.00 | 0.00 | 0.00 | 76 | 1009.9 |
| 20260505114142 | 62 | 6 | 4.0 | 9.0 | 0.00 | 0.00 | 0.00 | 77 | 1009.8 |
| 20260505113121 | 62 | 3 | 6.0 | 12.0 | 0.00 | 0.00 | 0.00 | 79 | 1010.0 |
| 20260505112121 | 62 | 15 | 4.0 | 10.0 | 0.00 | 0.00 | 0.00 | 80 | 1010.0 |
| 20260505111143 | 62 | 6 | 6.0 | 11.0 | 0.00 | 0.00 | 0.00 | 80 | 1009.9 |
| 20260505110121 | 62 | 16 | 5.0 | 11.0 | 0.00 | 0.00 | 0.00 | 81 | 1010.0 |
| 20260505102123 | 62 | 11 | 4.0 | 10.0 | 0.00 | 0.00 | 0.00 | 80 | 1010.9 |
| 20260505101121 | 62 | 32 | 3.0 | 5.0 | 0.00 | 0.00 | 0.00 | 80 | 1010.9 |
| 20260505100121 | 62 | 33 | 2.0 | 5.0 | 0.00 | 0.00 | 0.00 | 80 | 1011.0 |
| 20260505095121 | 62 | 14 | 3.0 | 5.0 | 0.00 | 0.00 | 0.00 | 80 | 1011.0 |
| 20260505094122 | 61 | 43 | 3.0 | 5.0 | 0.00 | 0.00 | 0.00 | 82 | 1011.0 |
| 20260505093121 | 61 | 23 | 4.0 | 8.0 | 0.00 | 0.00 | 0.00 | 83 | 1011.1 |
| 20260505092122 | 61 | 45 | 4.0 | 8.0 | 0.00 | 0.00 | 0.00 | 83 | 1011.3 |
| 20260505091121 | 61 | 21 | 4.0 | 7.0 | 0.00 | 0.00 | 0.00 | 82 | 1011.4 |
| 20260505090121 | 61 | 44 | 4.0 | 7.0 | 0.00 | 0.00 | 0.00 | 81 | 1011.3 |
| 20260505085121 | 61 | 11 | 7.0 | 13.0 | 0.00 | 0.00 | 0.00 | 80 | 1011.5 |
| 20260505084121 | 61 | 13 | 6.0 | 12.0 | 0.00 | 0.00 | 0.00 | 79 | 1011.7 |
| 20260505083122 | 61 | 7 | 6.0 | 12.0 | 0.00 | 0.00 | 0.00 | 78 | 1012.1 |
| 20260505082143 | 62 | 4 | 7.0 | 13.0 | 0.00 | 0.00 | 0.00 | 74 | 1012.2 |
| 20260505081122 | 63 | 4 | 9.0 | 14.0 | 0.00 | 0.00 | 0.00 | 69 | 1011.9 |
| 20260505080122 | 64 | 3 | 7.0 | 15.0 | 0.00 | 0.00 | 0.00 | 68 | 1012.1 |
| 20260505075121 | 65 | 1 | 9.0 | 14.0 | 0.00 | 0.00 | 0.00 | 63 | 1011.9 |
| 20260505074122 | 66 | 0 | 10.0 | 17.0 | 0.00 | 0.00 | 0.00 | 56 | 1011.9 |
| 20260505073122 | 67 | 4 | 8.0 | 15.0 | 0.00 | 0.00 | 0.00 | 51 | 1011.7 |
| 20260505072122 | 67 | 1 | 9.0 | 13.0 | 0.00 | 0.00 | 0.00 | 50 | 1011.8 |
| 20260505071122 | 68 | 1 | 8.0 | 13.0 | 0.00 | 0.00 | 0.00 | 49 | 1011.8 |
| 20260505070123 | 68 | 3 | 10.0 | 17.0 | 0.00 | 0.00 | 0.00 | 48 | 1011.6 |
| 20260505065121 | 68 | 2 | 11.0 | 18.0 | 0.00 | 0.00 | 0.00 | 47 | 1011.5 |
| 20260505064121 | 69 | 0 | 11.0 | 17.0 | 0.00 | 0.00 | 0.00 | 45 | 1011.2 |
| 20260505063122 | 69 | 1 | 10.0 | 16.0 | 0.00 | 0.00 | 0.00 | 42 | 1011.1 |
| 20260505062123 | 69 | 1 | 10.0 | 15.0 | 0.00 | 0.00 | 0.00 | 41 | 1011.1 |
| 20260505061121 | 69 | 1 | 10.0 | 18.0 | 0.00 | 0.00 | 0.00 | 40 | 1011.1 |
| 20260505060143 | 69 | 1 | 9.0 | 15.0 | 0.00 | 0.00 | 0.00 | 39 | 1011.0 |
| 20260505055123 | 70 | 1 | 8.0 | 13.0 | 0.00 | 0.00 | 0.00 | 38 | 1011.3 |
| 20260505054122 | 70 | 0 | 10.0 | 16.0 | 0.00 | 0.00 | 0.00 | 38 | 1011.2 |
| 20260505053143 | 70 | 1 | 9.0 | 14.0 | 0.00 | 0.00 | 0.00 | 36 | 1011.5 |
| 20260505052122 | 71 | 0 | 9.0 | 15.0 | 0.00 | 0.00 | 0.00 | 34 | 1011.6 |
| 20260505051122 | 71 | 0 | 9.0 | 14.0 | 0.00 | 0.00 | 0.00 | 33 | 1011.5 |
| 20260505050121 | 71 | 360 | 9.0 | 17.0 | 0.00 | 0.00 | 0.00 | 33 | 1011.5 |
| 20260505041122 | 72 | 360 | 11.0 | 15.0 | 0.00 | 0.00 | 0.00 | 33 | 1011.2 |
| 20260505040122 | 72 | 360 | 9.0 | 15.0 | 0.00 | 0.00 | 0.00 | 33 | 1010.9 |
| 20260505035143 | 73 | 0 | 10.0 | 17.0 | 0.00 | 0.00 | 0.00 | 33 | 1010.8 |
| 20260505034122 | 74 | 360 | 10.0 | 15.0 | 0.00 | 0.00 | 0.00 | 37 | 1010.7 |
| 20260505033122 | 74 | 360 | 8.0 | 14.0 | 0.00 | 0.00 | 0.00 | 35 | 1010.4 |
| 20260505032122 | 74 | 360 | 7.0 | 12.0 | 0.00 | 0.00 | 0.00 | 34 | 1010.2 |
| 20260505031122 | 74 | 360 | 8.0 | 13.0 | 0.00 | 0.00 | 0.00 | 34 | 1010.1 |
| 20260505030122 | 75 | 360 | 9.0 | 14.0 | 0.00 | 0.00 | 0.00 | 34 | 1010.0 |
| 20260505025122 | 75 | 0 | 9.0 | 19.0 | 0.00 | 0.00 | 0.00 | 34 | 1010.1 |
| 20260505024123 | 75 | 360 | 8.0 | 13.0 | 0.00 | 0.00 | 0.00 | 36 | 1009.9 |
| 20260505023122 | 75 | 360 | 5.0 | 8.0 | 0.00 | 0.00 | 0.00 | 37 | 1010.0 |
| 20260505022143 | 75 | 360 | 6.0 | 8.0 | 0.00 | 0.00 | 0.00 | 37 | 1010.0 |
| 20260505021122 | 75 | 359 | 6.0 | 10.0 | 0.00 | 0.00 | 0.00 | 38 | 1010.0 |
| 20260505020122 | 75 | 360 | 5.0 | 10.0 | 0.00 | 0.00 | 0.00 | 38 | 1009.9 |
| 20260505015122 | 75 | 359 | 4.0 | 8.0 | 0.00 | 0.00 | 0.00 | 38 | 1009.5 |
| 20260505014143 | 75 | 360 | 3.0 | 4.0 | 0.00 | 0.00 | 0.00 | 38 | 1009.2 |
| 20260505013122 | 75 | 352 | 3.0 | 5.0 | 0.00 | 0.00 | 0.00 | 38 | 1009.4 |
| 20260505012122 | 75 | 360 | 3.0 | 6.0 | 0.00 | 0.00 | 0.00 | 38 | 1009.4 |
| 20260505011122 | 75 | 360 | 4.0 | 6.0 | 0.00 | 0.00 | 0.00 | 38 | 1009.4 |
| 20260505010122 | 75 | 359 | 5.0 | 9.0 | 0.00 | 0.00 | 0.00 | 38 | 1009.6 |
| 20260505005122 | 76 | 356 | 6.0 | 11.0 | 0.00 | 0.00 | 0.00 | 38 | 1009.4 |
| 20260505004122 | 76 | 349 | 3.0 | 6.0 | 0.00 | 0.00 | 0.00 | 38 | 1009.3 |
| 20260505003122 | 76 | 344 | 4.0 | 8.0 | 0.00 | 0.00 | 0.00 | 38 | 1009.5 |
| 20260505002122 | 76 | 359 | 4.0 | 8.0 | 0.00 | 0.00 | 0.00 | 38 | 1009.6 |
| 20260505001123 | 76 | 354 | 4.0 | 8.0 | 0.00 | 0.00 | 0.00 | 38 | 1009.7 |
| 20260505000122 | 76 | 358 | 6.0 | 11.0 | 0.00 | 0.00 | 0.00 | 38 | 1009.9 |
| 20260504235143 | 76 | 357 | 4.0 | 8.0 | 0.00 | 0.00 | 0.00 | 38 | 1009.9 |
| 20260504234122 | 76 | 357 | 4.0 | 8.0 | 0.00 | 0.00 | 0.00 | 38 | 1009.8 |
| 20260504233143 | 76 | 355 | 6.0 | 11.0 | 0.00 | 0.00 | 0.00 | 38 | 1009.6 |